Regional Weather Roundup
Issued by NWS San Diego, CA

Home | Current Version | Previous Version | Text Only | Print | Product List | Glossary On
Versions: 1 2 3 4 5 6 7 8 9 10 11 12 13 14 15 16 17 18 19 20 21 22 23 24 25 26 27 28
000
ASUS46 KSGX 201611
RWRSGX

SAN DIEGO HOURLY WEATHER ROUNDUP
NATIONAL WEATHER SERVICE SAN DIEGO CA
800 AM PST TUE FEB 20 2018

NOTE: "FAIR" INDICATES FEW OR NO CLOUDS BELOW 12,000 FEET WITH NO
SIGNIFICANT WEATHER AND/OR OBSTRUCTIONS TO VISIBILITY.

CAZ042-043-060-061-PZZ750-775-201700-

GREATER SAN DIEGO AREA

CITY           SKY/WX    TMP DP  RH WIND       PRES   REMARKS
SAN DIEGO AP   MOSUNNY   48  29  47 CALM      30.17R
NATIONAL CITY    N/A     42  33  71 CALM      30.18R
CHULA VISTA      N/A     44  32  62 CALM      30.07R
IMPERIAL BEACH MOSUNNY   48  34  58 E10       30.16R
BROWN FIELD    SUNNY     45  31  58 SE6       30.15R
MIRAMAR MCAS   SUNNY     50  31  48 E3        30.14R
MONTGOMERY FLD SUNNY     46  27  47 E3        30.15R
GILLESPIE FLD  SUNNY     37  32  81 CALM      30.16R

$$

NORTH SAN DIEGO COUNTY

CITY           SKY/WX    TMP DP  RH WIND       PRES   REMARKS
CAMP PENDLETON SUNNY     38  23  55 CALM      30.17R
OCEANSIDE AP   SUNNY     39  27  62 CALM      30.16R
OCEANSIDE HBR    N/A     42  25  50 NE7       30.19R
VISTA            N/A     33  28  83 CALM      30.15R
CARLSBAD       SUNNY     43  29  57 CALM      30.14R
DEL MAR          N/A     42  34  74 CALM      30.17R
LA JOLLA SCRIP   N/A     47  34  60 E1        30.16R
FALLBROOK        N/A     38  24  57 CALM      30.17R
ESCONDIDO        N/A     42  31  64 CALM      30.17R
SAN MARCOS       N/A     42  31  67 CALM      30.20R
POWAY            N/A     35  31  85 CALM      30.17R

$$

EAST SAN DIEGO COUNTY

CITY           SKY/WX    TMP DP  RH WIND       PRES   REMARKS
RAMONA         SUNNY     34  29  82 CALM      30.12R
SANTEE LAKES     N/A     37  34  89 CALM      30.16R
LA MESA          N/A     40  28  63 CALM      30.09R
JAMUL            N/A     38  27  63 W1        30.17R
DESCANSO N       N/A     27  21  79 NE3       30.15R
CAMPO            N/A     29  22  75 E5        30.05R WCI  24

$$

ORANGE COUNTY AND THE LOS ANGELES BASIN

CITY           SKY/WX    TMP DP  RH WIND       PRES   REMARKS
JOHN WAYNE AP  MOSUNNY   47  20  34 VRB3      30.15R
LAKE FOREST FR   N/A     46  10  23 CALM      30.04R
HUNTINGTON BCH   N/A     46  28  49 CALM      30.16R
LOS ALAMITOS   SUNNY     43  19  37 NE3       30.15R
FULLERTON      SUNNY     44  18  35 E5        30.15R
LONG BEACH     SUNNY     45  23  42 CALM      30.16R
L.A. AP        SUNNY     46  18  32 NE6       30.15R
L.A. DOWNTOWN  SUNNY     46  14  27 CALM      30.15R

$$

THE INLAND EMPIRE

CITY           SKY/WX    TMP DP  RH WIND       PRES   REMARKS
CORONA         SUNNY     42  18  37 E5        30.16
CHINO          SUNNY     40  21  46 CALM      30.16R
ONTARIO        SUNNY     40  20  44 CALM      30.14R
SAN BERNARDINO SUNNY     39  14  35 CALM      30.14R
RIVERSIDE AP   SUNNY     39  20  46 VRB3      30.15R
MORENO VALLEY    N/A     40  25  54 CALM      28.23R
MARCH ARB      SUNNY     35  20  53 CALM      30.13R
HORSETHIEF CYN   N/A     36  14  39 CALM      30.17R
PERRIS           N/A     31  26  80 CALM      30.10R
HEMET EAST       N/A     33  15  46 CALM      30.21R
FRENCH VALLEY  FAIR      36  19  51 N5        30.15R WCI  32
TEMECULA         N/A     32  27  84 W1        30.20R

$$

SAN BERNARDINO AND RIVERSIDE COUNTY MOUNTAINS

CITY           SKY/WX    TMP DP  RH WIND       PRES   REMARKS
BIG BEAR AP      N/A     10   1  67 CALM      29.99R
ANGELUS OAKS     N/A     17   5  60 CALM      30.21R

$$

SOUTHERN DESERT INCLUDING THE COACHELLA VALLEY

CITY           SKY/WX    TMP DP  RH WIND       PRES   REMARKS
PALM SPRINGS   SUNNY     48  15  26 N3        30.17R
THOUSAND PALMS   N/A     44  13  28 NW5       30.13R
PALM DESERT      N/A     42  21  43 CALM      30.51S
THERMAL        SUNNY     48  15  26 N7        30.15R
BLYTHE         SUNNY     42  11  28 W8        30.14R
IMPERIAL AP    SUNNY     45  23  42 NW5       30.14R
EL CENTRO NAS  SUNNY     48  23  37 NW8       30.16R
YUMA AZ        MOSUNNY   49  13  23 N10       30.12R
MEXICALI       SUNNY     45  23  42 NW6       30.14R

$$

UPPER DESERT

CITY           SKY/WX    TMP DP  RH WIND       PRES   REMARKS
VICTORVILLE AP SUNNY     27  10  50 CALM      30.14R
HESPERIA         N/A     29  12  49 W2        30.30R
APPLE VALLEY     N/A     29  13  50 CALM      30.30R
PALMDALE       SUNNY     30  14  51 S3        30.15R
LANCASTER      SUNNY     28  14  55 CALM      30.17R
EDWARDS AFB    SUNNY     24   6  46 CALM      30.14R
DAGGETT        SUNNY     32  12  43 W9        30.17R WCI  24
29 PALMS N     SUNNY     35   9  33 N7        30.22R WCI  29
NEEDLES        SUNNY     47   5  18 N3        30.14R

$$

REGIONAL REPORTS

CITY           SKY/WX    TMP DP  RH WIND       PRES   REMARKS
SANTA BARBARA  SUNNY     49  14  24 NE9       30.16R
SANDBERG       SUNNY     26  16  65 N8        30.08R WCI  18
LAS VEGAS NV   SUNNY     36   8  31 S5        30.13R WCI  32
PHOENIX AZ     MOSUNNY   46  16  30 VRB6      30.05R
TIJUANA        SUNNY     45  28  53 E6        30.17R
ENSENADA NW      N/A     53  32  45 CALM      30.08R

$$

OFFSHORE ISLANDS

CITY           SKY/WX    TMP DP  RH WIND       PRES   REMARKS
CATALINA ARPT  SUNNY     45  18  34 NW9       30.11R
SAN CLEMENTE I MOSUNNY   52  30  43 NW15      30.16R
SAN NICOLAS IS MOSUNNY   50  29  44 NW15      30.15R

$$

MARINE AND OFFSHORE BUOY REPORTS

STATION/POSITION SKY/WX   TEMP    WIND        PRES    VSBY  SWELL
                          AIR SEA DIR/SP/G                  HT/PER/DIR
                          (F)     (DEG/KT/KT) (MB)    (MI)  (FT/S/D)
TANNER BANKS               53 59              1021.0R
S CLEMENTE BASIN           54 61  320/ 12/ 17 1020.8R         7/280/11
SAN NICOLAS IS.               58                N/A           7/310/11
SO. S. ROSA ISLA           50 57  330/ 16/ 19 1021.6R        10/310/14
W. S. BARBARA CH           49 57  340/ 16/ 21 1022.3R        10/290/11
M. S. BARBARA CH           49 56  320/ 14/ 17 1022.1R         3/260/11
S. MONICA BASIN                   340/  8/ 12 1020.7
S PEDRO CHANNEL               60                N/A           2/270/11
CMP PENDLETON NS              59                N/A           2/220/15
OCEANSIDE OFFSHR              59                N/A           2/270/11
TORREY PINES OTR              60                N/A           2/250/14
SAN DIEGO BAY                 64              1021.6R
POINT LOMA SOUTH              60                N/A           3/280/13

$$





USA.gov is the U.S. government's official web portal to all federal, state and local government web resources and services.